Terug naar catalogus

SJ-11-05

ActiefWetenschapSSO
NORAD 39202·PAYLOAD·🇨🇳 China

Gelanceerd Jul 15, 2013 vanaf Jiuquan Satellite Launch Center

Loading…

Volgende Passages (komende 24 uur)

TLE

VersSource: Space-Track

Epoch: Sep 14, 2026, 22:37 UTC

1 39202U 13035A   26257.94301291  .00000223  00000-0  50969-4 0  9999
2 39202  98.2866  83.4034 0009190 320.3950  39.6580 14.64969234702378

Volg SJ-11-05 in realtime met AllMySat

Download on the App Store